SCP
0 0 0 0 0 -0 -0 0 0 0 0 0 0 0 0 0 0 0 0 0 0 0 1 1 2 2 2 2 1 1 1 1 0 0 0 0 0 0 0 0 0 0 0
0 0 0 0 0 0 0 -0 0 0 0 0 0 0 0 0 0 0 0 0 0 0 0 1 2 2 2 2 2 1 1 1 0 0 0 0 0 0 0 0 0 0 0
-0 -0 -0 -0 0 0 0 0 -0 0 0 0 0 0 0 0 0 0 0 0 0 0 0 1 1 2 2 2 2 2 1 1 1 0 0 0 0 0 0 0 0 0 0
-0 -0 -0 -0 -0 0 0 0 0 -0 0 0 0 0 0 0 0 0 0 0 0 0 0 0 0 1 2 2 2 2 2 1 1 0 0 0 0 0 0 0 0 0 0
-0 -0 -0 0 0 0 0 0 0 0 0 -0 0 0 0 0 0 0 0 0 0 0 0 0 0 0 1 2 2 2 1 1 1 0 0 0 0 0 0 0 0 0 0
0 0 0 0 0 0 0 0 0 0 0 0 0 -0 0 0 0 0 0 0 0 0 0 0 0 0 0 1 2 2 2 1 1 0 0 0 0 0 0 0 0 0 0
0 0 0 0 0 0 0 0 0 0 0 0 -0 -0 -0 0 0 0 0 0 0 0 0 0 0 0 0 1 1 2 2 2 1 0 0 0 0 0 0 0 0 0 0
0 0 0 0 0 0 0 0 0 0 0 0 0 -0 -0 0 0 0 0 0 0 0 0 0 0 0 0 1 1 1 1 2 0 0 0 0 0 0 0 0 0 0 0
0 0 0 0 0 0 0 0 0 0 0 0 0 0 0 0 0 0 0 0 0 0 0 0 0 0 0 1 0 0 1 0 0 0 0 0 0 0 0 0 0 0 0
0 0 0 0 0 0 0 0 0 0 0 0 0 0 0 0 0 0 0 0 0 0 0 0 0 0 0 0 0 0 0 0 0 0 0 0 0 0 0 0 0 0 0
0 0 0 0 0 0 0 0 0 0 0 0 0 0 0 -0 -0 -0 0 0 0 0 0 0 0 0 0 0 0 0 0 0 0 0 0 0 0 0 0 0 0 0 0
0 0 0 0 0 0 0 0 0 0 0 0 0 0 0 -0 -0 -0 0 0 0 0 0 0 0 0 0 0 0 0 0 0 0 0 0 0 0 0 0 0 0 0 0
0 0 0 0 0 0 0 0 0 0 0 -0 0 0 0 -0 -0 -0 -0 0 0 0 0 0 0 0 0 0 0 0 0 0 0 0 0 0 0 0 0 0 0 0 0
0 0 0 0 0 0 0 0 0 0 0 0 0 0 -0 -0 -0 -0 -0 0 0 0 0 0 0 0 0 0 0 0 0 0 0 0 0 0 0 0 0 0 0 0 0
0 0 0 0 0 0 0 0 0 0 0 0 0 0 0 0 -0 -0 -0 -0 0 0 0 0 0 0 0 0 0 0 0 0 0 0 0 0 0 0 0 0 0 0 0
0 0 0 0 0 0 0 0 0 0 0 0 0 0 0 0 -0 0 -0 -0 0 0 0 0 0 0 0 0 0 0 0 0 0 0 0 0 0 0 0 0 0 0 0
0 0 0 0 0 0 0 0 0 0 0 0 0 0 0 0 -0 -0 0 -0 0 0 0 0 0 0 0 0 0 0 0 0 0 0 0 0 0 0 0 0 0 0 0
0 0 0 0 0 0 0 0 0 0 0 0 0 0 0 0 -0 -0 0 -0 -0 0 0 0 0 0 0 0 0 0 0 0 0 0 0 0 0 0 0 0 0 0 0
0 0 0 0 0 0 0 0 0 0 0 0 0 0 0 0 -0 -0 0 -0 -0 0 0 0 0 0 0 0 0 0 0 0 0 0 0 0 0 0 0 0 0 0 0
0 0 0 0 0 0 0 0 0 0 0 0 0 0 0 0 -0 -0 0 -0 -0 0 0 0 0 0 0 0 0 0 0 0 0 0 0 0 0 0 0 0 0 0 0
0 0 0 0 0 0 0 0 0 0 0 -0 -0 -0 -0 0 -0 0 0 -0 0 0 0 0 0 0 0 0 0 0 0 0 0 0 0 0 0 0 0 0 0 0 0
0 0 0 0 0 0 0 0 0 0 0 -0 -0 -0 -0 0 -0 0 0 0 0 0 0 0 0 0 0 0 0 0 0 0 0 0 0 0 0 0 0 0 0 0 0
0 0 0 0 0 0 0 0 0 0 0 -0 -0 -0 -0 -0 -0 0 0 0 0 0 0 0 0 0 0 0 0 0 0 0 0 0 0 0 0 0 0 0 0 0 0
0 0 0 0 0 0 0 0 0 0 -0 0 -0 -0 -0 -0 -0 0 0 0 0 0 0 0 0 0 0 0 0 0 0 0 0 0 0 0 0 0 0 0 0 0 0
0 0 0 0 0 0 0 0 0 0 -0 0 -0 0 -0 -0 0 0 0 0 0 0 0 0 0 0 0 0 0 0 0 0 0 0 0 0 0 0 0 0 0 0 0
0 0 0 0 0 0 0 0 0 -0 -0 -0 -0 0 0 -0 0 0 0 0 0 0 0 0 0 0 0 0 0 0 0 0 0 0 0 0 0 0 0 0 0 0 0
Wind_Speed_500mb
63 66 66 67 67 67 68 66 63 65 62 70 78 86 91 89 90 92 94 91 93 94 94 96 91 85 80 73 85 88 88 82 77 73 69 66 58 54 51 47 47 46 50
68 70 72 72 72 73 72 76 70 72 77 64 66 88 89 98 96 98 98 96 96 99 103 100 100 95 92 86 92 94 93 90 85 79 75 71 64 56 52 49 48 50 51
78 79 81 81 75 72 80 81 82 77 79 85 74 70 92 95 101 100 100 101 100 101 107 105 103 100 97 93 96 102 98 97 92 87 84 77 70 58 56 58 55 53 53
78 84 88 85 83 82 74 79 84 88 85 83 89 68 89 97 101 105 102 101 102 105 107 108 107 104 101 96 104 108 108 106 100 95 89 84 73 61 59 63 58 57 57
77 83 87 91 89 88 90 82 82 82 89 89 91 89 57 94 103 104 108 103 102 107 107 107 112 106 106 104 107 111 113 113 109 102 97 88 74 65 68 68 65 62 61
81 83 85 87 88 91 90 90 84 79 84 85 92 104 91 64 108 106 112 104 105 107 107 107 110 113 109 115 116 117 128 120 116 107 105 89 76 71 76 74 68 66 63
83 90 94 94 89 85 86 80 74 77 84 78 83 98 109 86 85 109 111 111 109 109 108 112 112 110 112 115 123 126 128 128 129 117 110 96 80 74 82 76 69 66 62
88 92 95 96 91 88 81 82 76 77 79 68 59 58 58 92 62 110 113 117 114 117 116 119 118 120 116 118 125 143 133 145 135 120 104 91 84 87 85 75 73 69 66
94 96 95 93 88 82 83 82 75 75 82 73 65 42 28 30 40 70 103 120 116 118 118 120 121 122 121 121 123 120 161 156 139 120 105 93 83 92 84 81 77 75 72
98 102 100 92 90 90 86 82 80 65 83 87 67 60 67 78 35 43 45 99 113 112 111 102 115 127 134 133 119 111 175 155 138 120 105 96 90 91 87 84 82 80 76
98 103 104 96 90 93 85 77 77 73 69 85 77 65 63 70 77 54 74 69 101 112 109 87 98 99 107 132 140 103 145 138 128 107 96 95 104 97 93 87 85 84 79
103 102 104 103 89 89 79 68 73 81 80 66 79 77 73 62 57 74 71 108 71 99 120 114 90 81 117 99 117 137 118 113 118 108 93 102 106 97 95 92 88 82 78
106 106 103 108 92 82 76 84 84 84 87 87 73 79 77 82 84 62 82 86 99 72 80 109 95 81 80 92 102 149 113 108 111 103 102 110 104 104 98 93 90 86 80
105 105 106 105 98 83 86 75 72 71 84 89 65 86 79 87 79 77 82 97 96 61 77 84 98 84 84 102 100 121 105 107 111 111 113 110 108 105 101 95 90 85 78
104 108 105 103 96 89 80 80 84 81 81 83 78 72 88 79 77 79 95 87 76 63 87 79 79 100 88 100 103 120 126 126 112 107 109 112 110 107 104 97 89 83 78
105 108 108 101 92 88 84 77 74 81 84 89 80 63 85 82 74 66 82 92 99 103 88 90 97 117 110 97 127 140 136 122 116 111 109 110 109 108 105 97 91 84 82
105 107 105 100 93 88 79 75 86 82 81 91 88 72 74 82 78 80 71 84 101 89 106 87 94 102 103 112 144 147 129 117 114 111 109 108 113 110 104 102 91 84 87
103 102 102 97 92 84 80 78 74 70 73 85 80 76 70 80 76 83 74 82 95 70 93 104 108 111 113 129 119 120 116 107 114 117 116 117 116 111 107 98 94 87 92
101 100 94 89 84 79 76 72 71 67 68 75 89 78 49 77 81 76 70 87 103 129 92 117 107 124 134 129 141 126 124 115 119 115 116 115 117 111 104 92 92 97 86
98 94 88 82 77 76 71 71 67 75 66 67 85 86 61 57 77 75 76 77 74 98 110 110 115 126 140 142 137 129 124 121 115 113 113 118 115 112 105 93 97 93 82
94 87 81 78 74 71 66 60 59 61 69 73 78 90 83 57 69 76 69 82 76 60 122 118 112 117 122 138 127 128 130 128 112 118 122 119 116 112 104 98 105 94 83
93 87 83 80 83 75 65 60 60 67 71 74 76 81 89 79 71 73 69 70 66 81 128 119 111 122 121 139 120 144 125 112 106 119 122 123 120 119 107 104 96 91 78
95 87 80 74 70 69 65 64 63 66 71 74 79 79 87 82 78 78 67 64 65 86 151 149 135 137 142 141 142 133 131 132 132 131 135 123 132 122 117 111 99 91 79
92 87 80 70 71 68 66 67 66 66 71 74 81 76 86 90 90 83 63 54 37 121 134 141 135 137 138 150 155 168 157 138 116 120 128 108 135 126 121 114 100 92 82
92 84 75 72 69 69 67 69 66 65 70 73 68 71 77 89 93 81 64 55 47 94 110 119 122 119 117 124 157 130 145 136 113 107 130 100 127 117 118 123 104 93 87
86 81 77 69 66 72 61 62 51 56 66 66 66 67 70 84 88 76 61 58 44 85 124 119 117 120 116 126 151 161 163 144 120 101 127 115 127 122 110 117 108 101 94
Wind_Direction_500mb
324 319 313 308 301 294 291 285 275 267 270 271 269 262 257 255 255 252 251 247 239 231 229 226 225 223 224 222 220 215 212 210 208 201 198 197 199 200 200 189 186 174 160
330 325 319 313 304 299 294 289 282 273 266 267 274 266 263 256 254 253 250 248 242 235 231 229 227 225 226 224 222 216 212 210 207 201 198 200 200 203 199 183 185 171 168
333 329 324 319 311 300 294 291 287 281 273 264 269 275 262 259 254 252 250 248 244 237 232 230 227 227 226 224 222 217 214 211 206 202 200 201 202 208 200 180 180 173 167
333 329 326 322 315 307 296 289 288 287 280 274 265 271 267 260 255 253 250 246 244 238 233 230 229 226 227 226 222 217 216 211 206 203 202 203 205 208 198 184 179 176 173
330 326 322 320 315 307 299 292 285 286 287 279 270 267 271 259 255 250 248 243 243 239 233 230 230 227 223 224 222 217 215 212 206 204 204 205 206 207 195 187 180 178 176
331 326 322 319 315 306 295 289 291 285 281 286 282 272 263 273 252 245 246 242 240 236 233 234 232 229 228 223 222 221 216 212 208 205 204 205 205 205 187 184 181 179 177
332 332 330 325 318 307 292 283 283 282 283 284 292 280 272 272 255 244 241 243 239 232 232 231 232 228 226 224 220 218 215 213 206 203 204 203 203 198 185 183 180 178 175
334 332 331 325 316 306 296 275 277 281 279 280 286 295 288 266 270 236 242 236 235 234 232 231 231 228 227 225 225 214 216 199 201 201 202 201 201 188 187 182 179 177 170
331 330 330 325 314 303 292 279 271 272 275 276 275 266 278 252 334 227 230 232 236 231 231 233 228 227 225 229 227 221 200 193 200 196 199 202 198 189 185 183 180 175 172
327 328 328 324 311 303 292 283 267 269 270 270 272 265 263 255 274 296 234 229 237 234 228 230 230 230 227 228 228 235 193 204 190 193 197 202 188 186 182 179 176 175 174
325 326 325 322 310 300 293 281 267 260 267 265 264 262 270 262 255 254 271 298 217 226 224 222 224 224 227 233 228 228 179 189 186 185 193 199 187 186 182 179 176 176 174
324 325 323 318 310 298 293 285 270 257 255 261 259 259 259 259 260 243 252 254 247 216 220 215 224 227 213 227 230 207 184 183 181 190 194 194 187 183 182 180 179 177 175
322 325 320 315 310 299 293 282 277 259 256 258 263 255 261 265 261 255 249 260 279 204 211 218 218 219 216 215 184 180 183 190 182 185 184 189 186 183 183 182 180 175 179
321 322 318 313 309 301 292 287 282 266 255 253 268 253 261 269 278 258 253 253 263 202 202 209 217 210 216 215 199 195 185 186 183 184 190 188 184 182 183 182 180 178 176
320 319 315 312 306 302 296 279 270 268 255 260 255 261 256 264 272 256 249 244 250 271 202 205 200 205 196 194 202 197 187 180 179 187 189 189 183 183 183 181 180 178 177
320 318 315 311 304 296 292 289 282 271 266 253 249 266 254 261 265 261 256 249 245 253 247 203 197 204 205 197 200 187 182 176 181 188 189 185 184 184 183 180 180 181 182
319 316 314 310 299 292 289 283 280 274 267 254 248 254 263 263 263 254 251 243 248 249 228 193 190 193 191 196 179 178 178 177 181 190 189 187 186 185 183 182 183 188 189
320 315 311 305 297 292 288 285 284 277 268 255 256 252 262 261 265 266 263 257 253 270 197 180 184 182 185 184 174 174 177 178 182 188 191 189 187 185 186 187 189 190 188
318 315 310 305 299 294 289 283 281 277 269 255 250 250 264 263 269 268 262 248 249 250 208 184 175 182 176 175 176 179 173 178 188 190 191 188 189 186 188 192 189 188 191
321 316 311 307 301 296 289 285 273 273 266 263 251 247 250 262 262 262 263 239 258 245 195 186 177 174 179 179 177 174 180 185 186 188 189 190 189 190 192 189 191 194 196
324 319 314 311 307 301 294 288 286 279 267 259 258 251 249 249 263 264 266 245 252 218 182 181 173 173 172 180 173 177 178 180 182 187 188 191 191 193 197 199 198 198 202
328 323 320 309 306 304 297 284 277 275 274 266 258 255 252 251 258 269 270 256 276 272 184 174 174 173 171 175 173 176 176 175 180 191 190 192 194 195 197 197 197 203 203
331 323 318 314 311 311 301 289 280 273 269 265 260 257 255 253 259 265 268 251 266 219 198 190 183 178 180 182 177 173 175 177 179 188 192 192 194 196 198 196 198 202 203
331 328 323 320 316 317 307 296 285 274 269 265 259 254 255 249 251 260 270 259 264 198 200 200 199 190 193 186 188 186 183 179 181 190 189 189 194 200 199 199 201 204 206
336 332 327 322 320 321 317 312 291 274 268 263 255 248 253 249 250 256 265 268 270 198 202 204 206 205 200 199 193 181 182 176 180 188 192 192 193 194 201 199 202 206 209
338 337 333 331 327 321 320 320 321 279 269 269 264 249 249 248 251 255 262 266 280 198 194 195 203 204 206 198 198 193 191 181 177 187 193 193 194 192 191 196 202 207 211
Wind_Speed_850mb
63 66 66 67 67 67 68 66 63 65 62 70 78 86 91 89 90 92 94 91 93 94 94 96 91 85 80 73 85 88 88 82 77 73 69 66 58 54 51 47 47 46 50
68 70 72 72 72 73 72 76 70 72 77 64 66 88 89 98 96 98 98 96 96 99 103 100 100 95 92 86 92 94 93 90 85 79 75 71 64 56 52 49 48 50 51
78 79 81 81 75 72 80 81 82 77 79 85 74 70 92 95 101 100 100 101 100 101 107 105 103 100 97 93 96 102 98 97 92 87 84 77 70 58 56 58 55 53 53
78 84 88 85 83 82 74 79 84 88 85 83 89 68 89 97 101 105 102 101 102 105 107 108 107 104 101 96 104 108 108 106 100 95 89 84 73 61 59 63 58 57 57
77 83 87 91 89 88 90 82 82 82 89 89 91 89 57 94 103 104 108 103 102 107 107 107 112 106 106 104 107 111 113 113 109 102 97 88 74 65 68 68 65 62 61
81 83 85 87 88 91 90 90 84 79 84 85 92 104 91 64 108 106 112 104 105 107 107 107 110 113 109 115 116 117 128 120 116 107 105 89 76 71 76 74 68 66 63
83 90 94 94 89 85 86 80 74 77 84 78 83 98 109 86 85 109 111 111 109 109 108 112 112 110 112 115 123 126 128 128 129 117 110 96 80 74 82 76 69 66 62
88 92 95 96 91 88 81 82 76 77 79 68 59 58 58 92 62 110 113 117 114 117 116 119 118 120 116 118 125 143 133 145 135 120 104 91 84 87 85 75 73 69 66
94 96 95 93 88 82 83 82 75 75 82 73 65 42 28 30 40 70 103 120 116 118 118 120 121 122 121 121 123 120 161 156 139 120 105 93 83 92 84 81 77 75 72
98 102 100 92 90 90 86 82 80 65 83 87 67 60 67 78 35 43 45 99 113 112 111 102 115 127 134 133 119 111 175 155 138 120 105 96 90 91 87 84 82 80 76
98 103 104 96 90 93 85 77 77 73 69 85 77 65 63 70 77 54 74 69 101 112 109 87 98 99 107 132 140 103 145 138 128 107 96 95 104 97 93 87 85 84 79
103 102 104 103 89 89 79 68 73 81 80 66 79 77 73 62 57 74 71 108 71 99 120 114 90 81 117 99 117 137 118 113 118 108 93 102 106 97 95 92 88 82 78
106 106 103 108 92 82 76 84 84 84 87 87 73 79 77 82 84 62 82 86 99 72 80 109 95 81 80 92 102 149 113 108 111 103 102 110 104 104 98 93 90 86 80
105 105 106 105 98 83 86 75 72 71 84 89 65 86 79 87 79 77 82 97 96 61 77 84 98 84 84 102 100 121 105 107 111 111 113 110 108 105 101 95 90 85 78
104 108 105 103 96 89 80 80 84 81 81 83 78 72 88 79 77 79 95 87 76 63 87 79 79 100 88 100 103 120 126 126 112 107 109 112 110 107 104 97 89 83 78
105 108 108 101 92 88 84 77 74 81 84 89 80 63 85 82 74 66 82 92 99 103 88 90 97 117 110 97 127 140 136 122 116 111 109 110 109 108 105 97 91 84 82
105 107 105 100 93 88 79 75 86 82 81 91 88 72 74 82 78 80 71 84 101 89 106 87 94 102 103 112 144 147 129 117 114 111 109 108 113 110 104 102 91 84 87
103 102 102 97 92 84 80 78 74 70 73 85 80 76 70 80 76 83 74 82 95 70 93 104 108 111 113 129 119 120 116 107 114 117 116 117 116 111 107 98 94 87 92
101 100 94 89 84 79 76 72 71 67 68 75 89 78 49 77 81 76 70 87 103 129 92 117 107 124 134 129 141 126 124 115 119 115 116 115 117 111 104 92 92 97 86
98 94 88 82 77 76 71 71 67 75 66 67 85 86 61 57 77 75 76 77 74 98 110 110 115 126 140 142 137 129 124 121 115 113 113 118 115 112 105 93 97 93 82
94 87 81 78 74 71 66 60 59 61 69 73 78 90 83 57 69 76 69 82 76 60 122 118 112 117 122 138 127 128 130 128 112 118 122 119 116 112 104 98 105 94 83
93 87 83 80 83 75 65 60 60 67 71 74 76 81 89 79 71 73 69 70 66 81 128 119 111 122 121 139 120 144 125 112 106 119 122 123 120 119 107 104 96 91 78
95 87 80 74 70 69 65 64 63 66 71 74 79 79 87 82 78 78 67 64 65 86 151 149 135 137 142 141 142 133 131 132 132 131 135 123 132 122 117 111 99 91 79
92 87 80 70 71 68 66 67 66 66 71 74 81 76 86 90 90 83 63 54 37 121 134 141 135 137 138 150 155 168 157 138 116 120 128 108 135 126 121 114 100 92 82
92 84 75 72 69 69 67 69 66 65 70 73 68 71 77 89 93 81 64 55 47 94 110 119 122 119 117 124 157 130 145 136 113 107 130 100 127 117 118 123 104 93 87
86 81 77 69 66 72 61 62 51 56 66 66 66 67 70 84 88 76 61 58 44 85 124 119 117 120 116 126 151 161 163 144 120 101 127 115 127 122 110 117 108 101 94
Wind_Direction_850mb
324 319 313 308 301 294 291 285 275 267 270 271 269 262 257 255 255 252 251 247 239 231 229 226 225 223 224 222 220 215 212 210 208 201 198 197 199 200 200 189 186 174 160
330 325 319 313 304 299 294 289 282 273 266 267 274 266 263 256 254 253 250 248 242 235 231 229 227 225 226 224 222 216 212 210 207 201 198 200 200 203 199 183 185 171 168
333 329 324 319 311 300 294 291 287 281 273 264 269 275 262 259 254 252 250 248 244 237 232 230 227 227 226 224 222 217 214 211 206 202 200 201 202 208 200 180 180 173 167
333 329 326 322 315 307 296 289 288 287 280 274 265 271 267 260 255 253 250 246 244 238 233 230 229 226 227 226 222 217 216 211 206 203 202 203 205 208 198 184 179 176 173
330 326 322 320 315 307 299 292 285 286 287 279 270 267 271 259 255 250 248 243 243 239 233 230 230 227 223 224 222 217 215 212 206 204 204 205 206 207 195 187 180 178 176
331 326 322 319 315 306 295 289 291 285 281 286 282 272 263 273 252 245 246 242 240 236 233 234 232 229 228 223 222 221 216 212 208 205 204 205 205 205 187 184 181 179 177
332 332 330 325 318 307 292 283 283 282 283 284 292 280 272 272 255 244 241 243 239 232 232 231 232 228 226 224 220 218 215 213 206 203 204 203 203 198 185 183 180 178 175
334 332 331 325 316 306 296 275 277 281 279 280 286 295 288 266 270 236 242 236 235 234 232 231 231 228 227 225 225 214 216 199 201 201 202 201 201 188 187 182 179 177 170
331 330 330 325 314 303 292 279 271 272 275 276 275 266 278 252 334 227 230 232 236 231 231 233 228 227 225 229 227 221 200 193 200 196 199 202 198 189 185 183 180 175 172
327 328 328 324 311 303 292 283 267 269 270 270 272 265 263 255 274 296 234 229 237 234 228 230 230 230 227 228 228 235 193 204 190 193 197 202 188 186 182 179 176 175 174
325 326 325 322 310 300 293 281 267 260 267 265 264 262 270 262 255 254 271 298 217 226 224 222 224 224 227 233 228 228 179 189 186 185 193 199 187 186 182 179 176 176 174
324 325 323 318 310 298 293 285 270 257 255 261 259 259 259 259 260 243 252 254 247 216 220 215 224 227 213 227 230 207 184 183 181 190 194 194 187 183 182 180 179 177 175
322 325 320 315 310 299 293 282 277 259 256 258 263 255 261 265 261 255 249 260 279 204 211 218 218 219 216 215 184 180 183 190 182 185 184 189 186 183 183 182 180 175 179
321 322 318 313 309 301 292 287 282 266 255 253 268 253 261 269 278 258 253 253 263 202 202 209 217 210 216 215 199 195 185 186 183 184 190 188 184 182 183 182 180 178 176
320 319 315 312 306 302 296 279 270 268 255 260 255 261 256 264 272 256 249 244 250 271 202 205 200 205 196 194 202 197 187 180 179 187 189 189 183 183 183 181 180 178 177
320 318 315 311 304 296 292 289 282 271 266 253 249 266 254 261 265 261 256 249 245 253 247 203 197 204 205 197 200 187 182 176 181 188 189 185 184 184 183 180 180 181 182
319 316 314 310 299 292 289 283 280 274 267 254 248 254 263 263 263 254 251 243 248 249 228 193 190 193 191 196 179 178 178 177 181 190 189 187 186 185 183 182 183 188 189
320 315 311 305 297 292 288 285 284 277 268 255 256 252 262 261 265 266 263 257 253 270 197 180 184 182 185 184 174 174 177 178 182 188 191 189 187 185 186 187 189 190 188
318 315 310 305 299 294 289 283 281 277 269 255 250 250 264 263 269 268 262 248 249 250 208 184 175 182 176 175 176 179 173 178 188 190 191 188 189 186 188 192 189 188 191
321 316 311 307 301 296 289 285 273 273 266 263 251 247 250 262 262 262 263 239 258 245 195 186 177 174 179 179 177 174 180 185 186 188 189 190 189 190 192 189 191 194 196
324 319 314 311 307 301 294 288 286 279 267 259 258 251 249 249 263 264 266 245 252 218 182 181 173 173 172 180 173 177 178 180 182 187 188 191 191 193 197 199 198 198 202
328 323 320 309 306 304 297 284 277 275 274 266 258 255 252 251 258 269 270 256 276 272 184 174 174 173 171 175 173 176 176 175 180 191 190 192 194 195 197 197 197 203 203
331 323 318 314 311 311 301 289 280 273 269 265 260 257 255 253 259 265 268 251 266 219 198 190 183 178 180 182 177 173 175 177 179 188 192 192 194 196 198 196 198 202 203
331 328 323 320 316 317 307 296 285 274 269 265 259 254 255 249 251 260 270 259 264 198 200 200 199 190 193 186 188 186 183 179 181 190 189 189 194 200 199 199 201 204 206
336 332 327 322 320 321 317 312 291 274 268 263 255 248 253 249 250 256 265 268 270 198 202 204 206 205 200 199 193 181 182 176 180 188 192 192 193 194 201 199 202 206 209
338 337 333 331 327 321 320 320 321 279 269 269 264 249 249 248 251 255 262 266 280 198 194 195 203 204 206 198 198 193 191 181 177 187 193 193 194 192 191 196 202 207 211